West Essex Park Conservancy

Temperature/Humidity/Waterlevel monitor

10-24 03:05  Fd   Fr   %    Z  mov    seq 
10-18 08:22:38,   34,  2, 261.9 149  30408
10-18 08:17:31,   34,  0,  0.0   0      0
10-18 08:12:12,   34, 96,  0.0   0      0
10-18 08:06:53,   34, 94,  0.0   0      0
10-18 08:01:35,   34, 92, 1026.2 201  25964
10-18 07:56:24,   34, 86,  0.0   0      0
10-18 07:51:05,   34, 84,  0.0   0      0
10-18 07:45:46,   34, 82,  0.0   0      0
10-18 07:40:28,   34, 76,  0.0   0      0
10-18 07:35:09,   34, 74,  0.0   0      0
10-18 07:29:49,   34, 72,  0.0   0      0
10-18 07:24:31,   34, 66,  0.0   0      0
10-18 07:19:11,   34, 64,  0.0   0      0
10-18 07:13:52,   34, 62,  0.0   0      0
10-18 07:08:33,   34, 56,  0.0   0      0
10-18 07:03:14,   34, 54,  0.0   0      0
10-18 06:57:54,   34, 52,  0.0   0      0
10-18 06:52:36,   34, 46,  0.0   0      0
10-18 06:47:17,   34, 44,  0.0   0      0
10-18 06:41:58,   34, 42,  0.0   0      0
10-18 06:36:39,   34, 36,  0.0   0      0
10-18 06:31:20,   34, 34,  0.0   0      0
10-18 06:26:00,   34, 32,  0.0   0      0
10-18 06:20:41,   34, 26,  0.0   0      0
10-18 06:15:21,   34, 24,  0.0   0      0
10-18 06:10:03,   34, 22,  0.0   0      0
10-18 06:04:44,   34, 20,  0.0   0      0
10-18 05:59:25,   34, 14,  0.0   0      0
10-18 05:54:06,   34, 12,  0.0   0      0
10-18 05:48:47,   34, 10,  0.0   0      0
10-18 05:43:27,   34,  4,  0.0   0      0
10-18 05:38:07,   34,  2,  0.0   0      0
10-18 05:32:48,   34,  0,  0.0   0      0
10-18 05:27:30,   34, 97,  0.0   0      0
10-18 05:22:10,   34, 95,  0.0   0      0
10-18 05:16:52,   34, 93,  0.0   0      0
10-18 05:11:33,   34, 87,  0.0   0      0
10-18 05:06:14,   34, 85,  0.0   0      0
10-18 05:00:55,   34, 82,  0.0   0      0
10-18 04:55:36,   34, 77,  0.0   0      0

Go to the West Essex Park Conservancy birding log .